Location: Sweet Grass
(48.9965°N, 111.9649°W)
Time: 21:36:33
(UTC+00:00)

KKS-1 - Visible Passes

Search period start: 31 March 2023 00:00
Search period end: 10 April 2023 00:00
Orbit: 632 x 646 km, 98.2° (Epoch: 31 March)

Date Brightness Start Highest point End Pass type
(mag) Time Alt. Az. Time Alt. Az. Time Alt. Az.
31 Mar ? 05:40:53 10° NNE 05:41:28 13° NNE 05:41:28 13° NNE visible
31 Mar ? 07:17:48 10° N 07:19:03 16° NNW 07:19:03 16° NNW visible
01 Apr ? 06:03:58 10° NNE 06:05:05 18° NNE 06:05:05 18° NNE visible
01 Apr ? 07:41:40 10° NNW 07:42:39 13° NNW 07:42:39 13° NNW visible
02 Apr ? 06:27:12 10° N 06:28:40 21° N 06:28:40 21° N visible
03 Apr ? 05:14:31 10° NE 05:14:42 11° NE 05:14:42 11° NE visible
03 Apr ? 06:50:36 10° N 06:52:17 21° N 06:52:17 21° N visible
04 Apr ? 05:37:20 10° NNE 05:38:18 16° NE 05:38:18 16° NE visible
04 Apr ? 07:14:07 10° N 07:15:53 19° NNW 07:15:53 19° NNW visible
05 Apr ? 06:00:22 10° NNE 06:01:53 21° NNE 06:01:53 21° NNE visible
05 Apr ? 07:37:54 10° NNW 07:39:28 15° NW 07:39:28 15° NW visible
06 Apr ? 06:23:33 10° N 06:25:28 25° N 06:25:28 25° N visible
06 Apr ? 08:02:21 10° NW 08:03:02 11° NW 08:03:02 11° NW visible
07 Apr ? 05:10:58 10° NE 05:11:28 12° NE 05:11:28 12° NE visible
07 Apr ? 06:46:53 10° N 06:49:02 26° NNW 06:49:02 26° NNW visible
08 Apr ? 05:33:42 10° NNE 05:35:02 18° NE 05:35:02 18° NE visible
08 Apr ? 07:10:22 10° N 07:12:36 23° NNW 07:12:36 23° NNW visible
09 Apr ? 05:56:40 10° NNE 05:58:36 25° NNE 05:58:36 25° NNE visible
09 Apr ? 07:34:04 10° NNW 07:36:10 17° NW 07:36:10 17° NW visible
